Location: Powder Track
(41.8531°N, 72.3584°W)
Time: 09:34:20
(UTC+00:00)

Transit 4A - Pass Details

Date: 12 August 2021
Orbit: 871 x 974 km, 66.8° (Epoch: 20 September)

Event Time Altitude Azimuth Distance (km) Brightness Sun altitude
Rises 09:04:12 0° 339° (NNW) 3,476 11.0 -9.3°
Reaches altitude 10° 09:07:45 10° 0° (N) 2,545 10.6 -8.8°
Maximum altitude 09:11:19 16° 38° (NE) 2,146 10.9 -8.2°
Drops below altitude 10° 09:14:54 10° 75° (ENE) 2,572 11.8 -7.6°
Sets 09:18:30 0° 97° (E) 3,530 12.0 -7.0°
